IW1PUR Weather Reports


time (UTC)temp
C
wind
direction
speed
KPH
gust
KPH
rain 1hr
cm
rain 24hr
cm
rain mn
cm
humidity
%
barometer
mb
20260506103256 16 135 0.0 1.6 0.00 1.70 1.70 43 1008.0
20260506102854 16 135 0.0 4.8 0.00 1.70 1.70 43 1008.0
20260506102453 17 135 0.0 1.6 0.00 1.70 1.70 44 1008.0
20260506102052 16 90 0.0 1.6 0.00 1.70 1.70 43 1007.8
20260506101450 16 135 0.0 1.6 0.00 1.70 1.70 43 1007.9
20260506101048 16 293 3.2 8.0 0.00 1.70 1.70 43 1007.8
20260506100647 17 90 3.2 11.3 0.00 1.70 1.70 42 1007.8
20260506100246 17 45 1.6 3.2 0.00 1.70 1.70 44 1007.9
20260506095845 17 45 0.0 1.6 0.00 1.70 1.70 44 1007.9
20260506095444 17 0 0.0 0.0 0.00 1.70 1.70 45 1007.9
20260506095042 16 158 0.0 0.0 0.00 1.70 1.70 51 1007.9
20260506094440 15 135 0.0 0.0 0.00 1.70 1.70 54 1007.8
20260506094039 14 315 0.0 1.6 0.00 1.70 1.70 58 1008.0
20260506093637 14 135 0.0 0.0 0.00 1.70 1.70 58 1008.0
20260506093236 14 135 0.0 1.6 0.00 1.70 1.70 57 1007.8
20260506092834 14 315 0.0 1.6 0.00 1.70 1.70 58 1007.9
20260506092433 14 135 0.0 1.6 0.00 1.70 1.70 60 1007.7
20260506092033 14 270 0.0 0.0 0.00 1.70 1.70 61 1008.0
20260506091631 14 90 0.0 1.6 0.00 1.70 1.70 61 1007.7
20260506090630 14 135 0.0 1.6 0.00 1.70 1.70 60 1007.8
20260506090228 14 180 0.0 3.2 0.00 1.70 1.70 60 1007.3
20260506085828 14 90 0.0 0.0 0.00 1.70 1.70 61 1007.3
20260506085426 14 90 0.0 0.0 0.00 1.70 1.70 61 1007.5
20260506084824 14 315 0.0 1.6 0.00 1.70 1.70 61 1007.3
20260506084422 14 225 3.2 12.9 0.00 1.70 1.70 61 1007.2
20260506084021 14 315 0.0 3.2 0.00 1.70 1.70 62 1007.2
20260506083620 14 45 1.6 8.0 0.00 1.70 1.70 62 1007.1
20260506083218 14 90 0.0 3.2 0.00 1.70 1.70 64 1007.1
20260506082817 14 270 1.6 8.0 0.00 1.70 1.70 64 1007.3
20260506082215 14 0 0.0 1.6 0.00 1.70 1.70 65 1006.7
20260506081813 14 180 3.2 17.7 0.00 1.70 1.70 68 1007.0
20260506081412 14 270 0.0 3.2 0.00 1.70 1.70 69 1006.8
20260506081011 14 225 0.0 1.6 0.00 1.70 1.70 69 1006.8
20260506080609 14 270 0.0 3.2 0.00 1.70 1.70 73 1006.8
20260506080208 13 0 3.2 19.3 0.00 1.70 1.70 74 1007.1
20260506072958 13 113 6.4 14.5 0.28 1.70 1.70 87 1006.5
20260506072558 13 180 0.0 1.6 0.28 1.70 1.70 87 1006.6
20260506072156 13 180 0.0 3.2 0.28 1.70 1.70 87 1006.5
20260506071755 13 135 0.0 0.0 0.28 1.70 1.70 87 1006.5
20260506071354 13 180 0.0 3.2 0.28 1.70 1.70 86 1006.5
20260506070953 13 90 3.2 20.9 0.28 1.70 1.70 86 1006.4
20260506070552 13 293 8.0 16.1 0.28 1.70 1.70 86 1006.5
20260506070351 13 45 0.0 1.6 0.28 1.70 1.70 85 1006.3
20260506062138 13 225 0.0 0.0 0.00 1.55 1.40 82 1006.1
20260506061736 13 135 0.0 0.0 0.00 1.57 1.40 82 1006.4
20260506061335 13 90 0.0 0.0 0.00 1.63 1.40 83 1006.4
20260506060733 12 135 0.0 1.6 0.00 1.70 1.40 84 1006.6
20260506060332 12 270 0.0 0.0 0.00 1.83 1.40 84 1006.6
20260506051117 11 270 0.0 0.0 0.03 3.00 1.40 86 1006.8
20260506050715 11 113 0.0 0.0 0.03 3.07 1.40 85 1006.8
20260506050314 11 113 0.0 0.0 0.05 3.15 1.40 85 1006.7
20260506044909 11 90 0.0 0.0 0.08 3.40 1.40 85 1006.7
20260506044508 11 135 0.0 0.0 0.10 3.48 1.40 85 1006.9
20260506044108 11 225 0.0 0.0 0.10 3.53 1.40 85 1006.9
20260506043706 11 270 0.0 0.0 0.10 3.56 1.40 85 1006.8
20260506043505 11 45 0.0 0.0 0.10 3.56 1.40 85 1006.9
20260506043104 11 45 0.0 0.0 0.10 3.61 1.40 85 1007.0
20260506042702 11 45 0.0 0.0 0.08 3.61 1.40 85 1007.1
20260506042301 11 180 0.0 0.0 0.08 3.66 1.37 85 1007.2
20260506041859 11 45 0.0 0.0 0.08 3.68 1.37 85 1007.2
20260506041458 11 0 0.0 0.0 0.08 3.71 1.37 85 1007.2
20260506040456 11 68 0.0 3.2 0.05 3.99 1.35 84 1007.4
20260506040054 11 270 0.0 0.0 0.03 3.94 1.35 84 1007.5
20260506035653 11 90 0.0 0.0 0.03 3.99 1.30 84 1007.7
20260506035251 11 270 0.0 0.0 0.00 3.94 1.30 84 1007.6
20260506034850 11 270 0.0 0.0 0.03 3.94 1.27 85 1007.5
20260506034449 11 270 0.0 0.0 0.10 3.99 1.27 85 1007.3
20260506033847 11 270 0.0 0.0 0.13 3.99 1.27 84 1007.4
20260506033446 11 45 0.0 0.0 0.20 4.04 1.27 84 1007.3
20260506033044 11 135 0.0 0.0 0.23 4.06 1.27 83 1007.3
20260506032643 11 270 0.0 0.0 0.25 4.09 1.27 83 1007.2
20260506032242 11 225 0.0 0.0 0.30 4.11 1.27 84 1007.3
20260506031840 11 225 0.0 0.0 0.43 4.11 1.27 82 1007.4
20260506031439 11 225 0.0 0.0 0.56 4.11 1.27 82 1007.4
20260506031238 11 225 0.0 0.0 0.58 4.11 1.27 82 1007.3
20260506030836 11 225 0.0 0.0 0.61 4.11 1.27 82 1007.3
20260506030435 11 225 0.0 0.0 0.64 4.17 1.27 82 1007.5
20260506030033 11 225 0.0 0.0 0.69 4.17 1.27 82 1007.7
20260506025632 11 225 0.0 0.0 0.64 4.11 1.27 82 1007.7
20260506025231 11 270 0.0 0.0 0.64 4.06 1.24 82 1007.5
20260506024830 11 90 0.0 0.0 0.64 4.04 1.19 82 1007.8
20260506024429 11 90 0.0 0.0 0.64 4.04 1.17 82 1008.2
20260506023426 11 225 0.0 0.0 0.71 3.99 1.07 81 1008.1
20260506023025 11 225 0.0 0.0 0.74 3.99 1.04 81 1008.0
20260506022623 11 0 0.0 0.0 0.69 3.91 1.02 80 1008.2
20260506022222 11 0 0.0 0.0 0.58 3.84 0.94 80 1008.2
20260506021620 12 90 0.0 0.0 0.51 3.71 0.71 78 1008.3
20260506021219 12 135 0.0 0.0 0.53 3.71 0.69 77 1008.3
20260506020817 12 180 0.0 0.0 0.53 3.68 0.64 77 1008.0
20260506020416 12 180 0.0 0.0 0.53 3.68 0.61 76 1007.7
20260506020014 12 180 0.0 0.0 0.53 3.68 0.58 76 1007.8
20260506015814 12 180 0.0 0.0 0.51 3.68 0.58 76 1008.0
20260506015412 12 135 0.0 0.0 0.46 3.61 0.53 75 1008.0
20260506015012 12 225 0.0 0.0 0.43 3.58 0.51 75 1008.1
20260506014610 12 225 0.0 0.0 0.43 3.56 0.46 75 1008.3
20260506014209 12 45 0.0 0.0 0.38 3.51 0.43 75 1008.6
20260506013808 12 45 0.0 0.0 0.30 3.43 0.38 74 1008.7
20260506013406 12 45 0.0 0.0 0.25 3.38 0.30 75 1008.7
20260506012404 12 315 0.0 0.0 0.20 3.38 0.23 73 1008.6
20260506012003 13 45 0.0 0.0 0.18 3.35 0.20 72 1008.5
20260506011602 13 180 0.0 0.0 0.10 3.33 0.18 72 1008.4
20260506011200 13 90 0.0 0.0 0.08 3.28 0.10 72 1008.5
20260506010759 13 0 0.0 0.0 0.05 3.28 0.08 72 1008.4
20260506010157 13 90 0.0 0.0 0.03 3.28 0.05 71 1008.3
20260506005756 13 45 0.0 0.0 0.03 3.25 0.03 69 1008.3
20260506005354 13 45 0.0 0.0 0.03 3.25 0.03 69 1008.4
20260506004953 13 45 0.0 0.0 0.00 3.23 0.03 68 1008.6
20260506004551 13 270 0.0 0.0 0.00 3.23 0.00 68 1008.6
20260506004151 13 135 0.0 0.0 0.00 3.23 0.00 67 1008.6
20260506003950 13 135 0.0 0.0 0.00 3.23 0.00 67 1008.6
20260506003549 13 90 0.0 0.0 0.00 3.23 0.00 67 1008.5
20260506003147 13 90 0.0 0.0 0.00 3.23 0.00 67 1008.6
20260506002746 13 90 0.0 0.0 0.00 3.23 0.00 67 1008.6
20260506002345 13 270 0.0 0.0 0.00 3.23 0.00 67 1008.6
20260506001943 13 270 0.0 0.0 0.00 3.23 0.00 66 1008.7
20260506001542 13 45 0.0 0.0 0.00 3.23 0.00 66 1008.8
20260506000541 13 225 0.0 0.0 0.00 3.23 0.00 66 1009.0
20260506000139 13 225 0.0 0.0 0.00 3.23 0.00 66 1008.9
20260505235738 13 135 0.0 0.0 0.00 3.23 0.00 66 1009.0
20260505235336 13 135 0.0 0.0 0.00 3.23 0.00 66 1009.1
20260505234334 13 180 0.0 0.0 0.00 3.23 0.00 66 1009.4
20260505233933 13 270 0.0 0.0 0.00 3.23 0.00 65 1009.5
20260505233531 13 45 0.0 0.0 0.00 3.23 0.00 65 1009.6
20260505233130 13 270 0.0 0.0 0.00 3.23 0.00 65 1009.7
20260505232729 13 270 0.0 0.0 0.00 3.23 0.00 65 1009.8
20260505232327 13 0 0.0 0.0 0.00 3.23 0.00 65 1009.9
20260505231926 13 45 0.0 0.0 0.00 3.23 0.00 65 1009.8
20260505231324 13 45 0.0 1.6 0.00 3.23 0.00 65 1009.8
20260505230923 13 0 0.0 0.0 0.00 3.23 0.00 66 1010.1
20260505230522 13 315 0.0 0.0 0.00 3.23 0.00 66 1010.2
20260505230122 13 68 0.0 0.0 0.00 3.23 0.00 66 1009.9
20260505225720 13 90 0.0 1.6 0.00 3.23 0.00 66 1010.0
20260505224316 13 293 0.0 1.6 0.00 3.23 0.00 67 1010.1
20260505223915 13 135 0.0 0.0 0.00 3.23 0.00 66 1010.1
20260505223514 13 135 0.0 0.0 0.00 3.23 0.00 67 1010.2
20260505223113 13 270 0.0 0.0 0.00 3.23 0.00 67 1010.2
20260505222512 13 0 0.0 0.0 0.00 3.23 0.00 67 1010.2
20260505222110 13 225 0.0 0.0 0.00 3.23 0.00 67 1010.3
20260505221709 13 158 0.0 1.6 0.00 3.23 0.00 67 1010.4
20260505221307 13 270 0.0 0.0 0.00 3.23 0.00 67 1010.2
20260505220906 13 315 0.0 0.0 0.00 3.23 0.00 67 1010.3
20260505220505 13 45 0.0 0.0 0.00 0.00 0.00 67 1010.5
20260505215750 13 315 0.0 0.0 0.00 3.23 3.23 67 1010.6
20260505215348 13 90 0.0 0.0 0.00 3.23 3.23 67 1010.7
20260505214947 13 270 0.0 0.0 0.00 3.23 3.23 67 1010.6
20260505214546 13 45 0.0 0.0 0.00 3.23 3.23 67 1010.5
20260505214345 13 270 0.0 0.0 0.00 3.23 3.23 67 1010.6
20260505213944 13 90 0.0 0.0 0.00 3.23 3.23 68 1010.6
20260505213543 13 270 0.0 0.0 0.00 3.23 3.23 68 1010.7
20260505213142 13 180 0.0 0.0 0.00 3.23 3.23 68 1010.8
20260505212740 13 0 0.0 0.0 0.00 3.23 3.23 68 1010.9
20260505212340 13 45 0.0 0.0 0.00 3.23 3.23 68 1010.8
20260505211938 13 45 0.0 0.0 0.00 3.23 3.23 68 1010.7
20260505210936 13 45 0.0 1.6 0.00 3.23 3.23 67 1010.9
20260505210535 13 315 0.0 0.0 0.00 3.23 3.23 67 1010.8
20260505210134 13 270 0.0 0.0 0.00 3.23 3.23 66 1010.9
20260505205732 13 270 0.0 0.0 0.00 3.23 3.23 66 1011.1
20260505205331 13 45 0.0 0.0 0.00 3.23 3.23 66 1010.9
20260505204730 13 270 0.0 0.0 0.00 3.23 3.23 65 1011.0
20260505204327 13 90 0.0 1.6 0.00 3.23 3.23 65 1011.0
20260505203926 13 45 0.0 0.0 0.00 3.23 3.23 64 1011.1
20260505203525 13 0 0.0 0.0 0.00 3.23 3.23 64 1011.1
20260505203124 13 180 0.0 0.0 0.00 3.23 3.23 63 1011.2
20260505202723 13 90 0.0 0.0 0.00 3.23 3.23 63 1011.2
20260505202322 13 45 0.0 0.0 0.00 3.23 3.23 63 1011.1
20260505201921 13 315 0.0 0.0 0.00 3.23 3.23 63 1011.0
20260505201720 13 315 0.0 0.0 0.00 3.23 3.23 63 1011.0
20260505201320 13 135 0.0 0.0 0.00 3.23 3.23 61 1011.1
20260505200918 13 0 0.0 0.0 0.00 3.23 3.23 61 1011.1
20260505200517 13 135 0.0 0.0 0.00 3.23 3.23 61 1011.1
20260505200115 13 90 0.0 1.6 0.00 3.23 3.23 61 1011.1
20260505195714 13 225 0.0 0.0 0.00 3.23 3.23 61 1011.2
20260505194711 13 293 0.0 0.0 0.00 3.23 3.23 61 1011.1
20260505194310 13 45 0.0 0.0 0.00 3.23 3.23 60 1011.0
20260505193909 13 135 0.0 0.0 0.00 3.23 3.23 59 1011.1
20260505193508 13 135 0.0 0.0 0.00 3.23 3.23 59 1011.0
20260505193106 13 315 0.0 0.0 0.00 3.23 3.23 59 1010.9
20260505192705 13 225 0.0 0.0 0.00 3.23 3.23 58 1010.8
20260505192103 13 180 0.0 0.0 0.00 3.23 3.23 57 1010.9
20260505191702 14 45 0.0 0.0 0.00 3.23 3.23 57 1010.8
20260505191300 14 45 0.0 0.0 0.00 3.23 3.23 57 1010.9
20260505190859 14 90 0.0 0.0 0.00 3.23 3.23 56 1010.8
20260505190458 14 135 0.0 0.0 0.00 3.23 3.23 55 1010.9
20260505190257 14 135 0.0 0.0 0.00 3.23 3.23 55 1010.8
20260505185855 14 270 0.0 0.0 0.00 3.23 3.23 55 1010.6
20260505185454 14 135 0.0 0.0 0.00 3.23 3.23 54 1010.7
20260505185053 14 0 0.0 0.0 0.00 3.23 3.23 54 1010.7
20260505184652 14 293 0.0 0.0 0.00 3.23 3.23 54 1010.7
20260505184250 14 270 0.0 0.0 0.00 3.23 3.23 54 1010.7
20260505183248 14 135 0.0 0.0 0.00 3.23 3.23 53 1010.8
20260505182847 14 180 0.0 0.0 0.00 3.23 3.23 53 1010.8
20260505182445 14 180 0.0 0.0 0.00 3.23 3.23 53 1010.8
20260505182044 15 225 0.0 0.0 0.00 3.23 3.23 52 1010.8
20260505181643 15 45 0.0 0.0 0.00 3.23 3.23 52 1010.8
20260505181040 15 225 0.0 0.0 0.00 3.23 3.23 50 1010.7
20260505180639 15 45 0.0 0.0 0.00 3.23 3.23 50 1010.7
20260505180238 15 45 0.0 0.0 0.00 3.23 3.23 49 1010.7
20260505175836 15 45 0.0 1.6 0.00 3.23 3.23 49 1010.6
20260505175436 15 135 0.0 0.0 0.00 3.23 3.23 48 1010.7
20260505175035 15 90 0.0 0.0 0.00 3.23 3.23 47 1010.6
20260505174032 16 180 0.0 0.0 0.00 3.23 3.23 44 1010.5
20260505173631 16 135 0.0 1.6 0.00 3.23 3.23 42 1010.6
20260505173229 16 135 0.0 0.0 0.00 3.23 3.23 42 1010.5
20260505172828 17 180 0.0 0.0 0.00 3.23 3.23 38 1010.5
20260505172426 17 180 0.0 0.0 0.00 3.23 3.23 36 1010.5
20260505171423 20 135 0.0 0.0 0.00 3.23 3.23 34 1010.5
20260505171025 20 135 0.0 0.0 0.00 3.23 3.23 35 1010.5
20260505170623 19 270 0.0 0.0 0.00 3.23 3.23 36 1010.5
20260505170220 18 270 0.0 0.0 0.00 3.23 3.23 39 1010.4
20260505165819 17 270 0.0 0.0 0.00 3.23 3.23 41 1010.5
20260505165419 17 180 0.0 0.0 0.00 3.23 3.23 42 1010.5
20260505164817 17 180 0.0 0.0 0.00 3.23 3.23 41 1010.6
20260505164415 17 180 0.0 0.0 0.00 3.23 3.23 41 1010.5
20260505164015 18 0 0.0 0.0 0.00 3.23 3.23 39 1010.5
20260505163613 18 90 0.0 0.0 0.00 3.23 3.23 37 1010.5
20260505163212 19 225 0.0 1.6 0.00 3.23 3.23 36 1010.5
20260505162810 20 23 0.0 0.0 0.00 3.23 3.23 37 1010.5
20260505162409 19 90 0.0 0.0 0.00 3.23 3.23 37 1010.5
20260505162208 19 135 0.0 0.0 0.00 3.23 3.23 36 1010.6
20260505161806 20 113 0.0 0.0 0.00 3.23 3.23 37 1010.5
20260505161406 20 90 0.0 0.0 0.00 3.23 3.23 35 1010.5
20260505161005 20 90 0.0 0.0 0.00 3.23 3.23 36 1010.5
20260505160603 19 270 0.0 0.0 0.00 3.23 3.23 37 1010.6
20260505160202 19 315 0.0 0.0 0.00 3.23 3.23 36 1010.5
20260505152952 17 135 0.0 0.0 0.00 3.23 3.23 42 1010.8
20260505152551 17 90 0.0 0.0 0.00 3.23 3.23 42 1010.9
20260505152150 18 180 0.0 0.0 0.00 3.23 3.23 42 1010.9
20260505151748 18 180 0.0 0.0 0.00 3.23 3.23 41 1010.9
20260505151347 18 315 0.0 0.0 0.00 3.23 3.23 42 1010.8
20260505150945 18 180 0.0 0.0 0.00 3.23 3.23 40 1010.8
20260505140325 21 225 0.0 1.6 0.00 3.23 3.23 33 1010.6
20260505130308 19 135 0.0 0.0 0.00 3.23 3.23 43 1010.9
20260505124502 19 180 0.0 0.0 0.00 3.23 3.23 44 1010.9
20260505124101 20 135 0.0 0.0 0.00 3.23 3.23 44 1010.9
20260505123700 20 135 0.0 0.0 0.00 3.23 3.23 45 1010.9
20260505123258 19 225 0.0 0.0 0.00 3.23 3.23 46 1010.9
20260505122857 18 135 0.0 0.0 0.00 3.23 3.23 47 1011.0
20260505122456 17 180 0.0 0.0 0.00 3.23 3.23 45 1011.0
20260505122055 17 180 0.0 0.0 0.00 3.23 3.23 45 1011.0
20260505121453 18 135 0.0 0.0 0.00 3.23 3.23 46 1011.0
20260505120652 19 180 0.0 0.0 0.00 3.23 3.23 45 1010.9
20260505120250 19 180 0.0 0.0 0.00 3.23 3.23 44 1010.8
20260505115849 19 225 0.0 0.0 0.00 3.23 3.23 44 1010.9
20260505115448 19 270 0.0 0.0 0.00 3.23 3.23 45 1010.9
20260505114445 18 158 0.0 0.0 0.00 3.23 3.23 47 1011.0
20260505114044 18 270 0.0 0.0 0.00 3.23 3.23 47 1011.0
20260505113642 17 180 0.0 0.0 0.00 3.23 3.23 50 1010.9
20260505113241 17 90 0.0 0.0 0.00 3.23 3.23 51 1011.0
20260505112840 16 135 0.0 0.0 0.00 3.23 3.23 53 1011.0
20260505112238 16 158 0.0 0.0 0.00 3.23 3.23 53 1011.1
20260505111837 17 180 0.0 0.0 0.00 3.23 3.23 52 1011.1
20260505111436 17 135 0.0 0.0 0.00 3.23 3.23 53 1011.1
20260505111035 17 225 0.0 0.0 0.00 3.23 3.23 55 1010.9
20260505110634 16 135 0.0 0.0 0.00 3.23 3.23 55 1011.0
20260505110233 16 180 0.0 0.0 0.00 3.23 3.23 57 1011.0